Location: Tyumen
(57.1527°N, 65.5323°E)
Time: 19:55:07
(UTC+05:00)

ISS - Visible Passes

Search period start: 25 May 2020 00:00
Search period end: 04 June 2020 00:00
Orbit: 417 x 420 km, 51.6° (Epoch: 26 May)

Date Brightness Start Highest point End Pass type
(mag) Time Alt. Az. Time Alt. Az. Time Alt. Az.
25 May -2.5 22:16:41 10° WSW 22:19:32 25° SSW 22:22:22 10° SE visible
25 May -1.4 23:54:45 10° SW 23:55:29 11° SW 23:55:30 11° SW visible
26 May -1.7 23:06:07 10° WSW 23:07:57 14° SSW 23:09:16 12° S visible
27 May -1.9 22:18:01 10° WSW 22:20:22 18° SSW 22:22:43 10° SSE visible
29 May -1.3 22:20:13 10° SW 22:21:02 11° SW 22:21:52 10° SSW visible
